UPS197 EHAM-KSDF

Flight info

Callsign UPS197
Flight time N/A
Altitude 30000
Route BERGI L602 NALAX L46 GETNO DCT MASOP DCT BELZU DCT KUGUR DCT SUNOT/M083F300 DCT 58N020W 60N030W 60N040W 59N050W/M084F340 DCT AVUTI/N0493F340 N850C YDP N848C JOVIE DCT MT J545 YVO/N0490F360 Q820 DERLO DCT WWSHR Q29 SEELA DCT RINTE DLAMP8
Aircraft MD11/H-SDE1E2E3FGHIJ2J3J4J5M1RWXY/LB1D1

Departure

Time 2026-05-06 19:16
Airport Amsterdam Airport Schiphol (EHAM)

Arrival

Time N/A
Airport Louisville Muhammad Ali International Airport (KSDF)
Time Latitude Longitude Altitude Speed Heading
2026-05-06 18:34 52.29471 4.76119 5 ft 0 kts 147°
2026-05-06 19:02 52.29475 4.76116 4 ft 2 kts 147°
2026-05-06 19:03 52.29490 4.76100 4 ft 3 kts 148°
2026-05-06 19:03 52.29507 4.76083 6 ft 3 kts 148°
2026-05-06 19:03 52.29524 4.76066 6 ft 2 kts 148°
2026-05-06 19:03 52.29537 4.76052 5 ft 3 kts 161°
2026-05-06 19:04 52.29552 4.76046 6 ft 3 kts 194°
2026-05-06 19:04 52.29565 4.76055 7 ft 3 kts 230°
2026-05-06 19:04 52.29577 4.76081 5 ft 3 kts 239°
2026-05-06 19:04 52.29582 4.76095 4 ft 0 kts 238°
2026-05-06 19:09 52.29579 4.76086 4 ft 4 kts 238°
2026-05-06 19:09 52.29553 4.76018 4 ft 10 kts 239°
2026-05-06 19:09 52.29516 4.75889 4 ft 15 kts 250°
2026-05-06 19:10 52.29467 4.75711 6 ft 19 kts 242°
2026-05-06 19:10 52.29442 4.75620 4 ft 0 kts 259°
2026-05-06 19:11 52.29442 4.75604 3 ft 5 kts 266°
2026-05-06 19:11 52.29470 4.75522 4 ft 13 kts 318°
2026-05-06 19:11 52.29574 4.75410 4 ft 22 kts 327°
2026-05-06 19:11 52.29715 4.75285 5 ft 20 kts 348°
2026-05-06 19:12 52.29825 4.75220 5 ft 15 kts 317°
2026-05-06 19:12 52.29886 4.75109 5 ft 13 kts 311°
2026-05-06 19:12 52.29943 4.75004 5 ft 13 kts 311°
2026-05-06 19:12 52.30012 4.74878 5 ft 18 kts 311°
2026-05-06 19:13 52.30112 4.74693 5 ft 25 kts 311°
2026-05-06 19:13 52.30211 4.74508 5 ft 23 kts 311°
2026-05-06 19:13 52.30328 4.74292 5 ft 27 kts 311°
2026-05-06 19:13 52.30344 4.74071 5 ft 24 kts 222°
2026-05-06 19:14 52.30234 4.73934 5 ft 0 kts 218°
2026-05-06 19:15 52.30232 4.73931 5 ft 3 kts 218°
2026-05-06 19:15 52.30196 4.73820 4 ft 13 kts 270°
2026-05-06 19:15 52.30283 4.73739 0 ft 22 kts 359°
2026-05-06 19:15 52.30627 4.73771 2 ft 83 kts
2026-05-06 19:16 52.31415 4.73845 3 ft 142 kts
2026-05-06 19:16 52.32138 4.73912 9 ft 170 kts
2026-05-06 19:16 52.33389 4.74005 246 ft 179 kts
2026-05-06 19:16 52.34629 4.73941 693 ft 188 kts 353°
2026-05-06 19:17 52.35940 4.73462 1010 ft 201 kts 347°
2026-05-06 19:17 52.37285 4.72767 1485 ft 203 kts 347°
2026-05-06 19:17 52.38630 4.72056 1916 ft 207 kts 346°
2026-05-06 19:17 52.40070 4.71303 2255 ft 227 kts 347°
2026-05-06 19:18 52.41641 4.70418 2456 ft 250 kts 343°
2026-05-06 19:18 52.43340 4.69389 2596 ft 271 kts 343°
2026-05-06 19:18 52.45178 4.68267 2763 ft 288 kts 342°
2026-05-06 19:18 52.46985 4.67120 2865 ft 272 kts 342°
2026-05-06 19:19 52.48751 4.66012 3497 ft 270 kts 342°
2026-05-06 19:19 52.50494 4.64938 4269 ft 265 kts 342°
2026-05-06 19:19 52.52261 4.63874 4527 ft 284 kts 343°
2026-05-06 19:19 52.54207 4.62714 4625 ft 309 kts 342°
2026-05-06 19:20 52.56219 4.61484 5360 ft 307 kts 339°
2026-05-06 19:20 52.58004 4.59587 6269 ft 305 kts 322°
2026-05-06 19:20 52.59569 4.57269 7138 ft 299 kts 320°
2026-05-06 19:20 52.61069 4.54967 8002 ft 290 kts 319°
2026-05-06 19:21 52.62539 4.52777 8912 ft 280 kts 319°
2026-05-06 19:21 52.63970 4.50717 9823 ft 267 kts 319°
2026-05-06 19:21 52.65345 4.48788 10661 ft 251 kts 320°
2026-05-06 19:21 52.66642 4.46996 11494 ft 234 kts 319°
2026-05-06 19:22 52.67884 4.45298 12002 ft 234 kts 320°
2026-05-06 19:22 52.69134 4.43599 12423 ft 233 kts 319°
2026-05-06 19:22 52.70360 4.41940 12806 ft 228 kts 319°
2026-05-06 19:22 52.71478 4.40178 13166 ft 220 kts 302°
2026-05-06 19:23 52.72249 4.38031 13563 ft 218 kts 297°
2026-05-06 19:23 52.72980 4.35769 13708 ft 228 kts 297°
2026-05-06 19:23 52.73751 4.33429 13859 ft 237 kts 299°
2026-05-06 19:23 52.74570 4.31003 14018 ft 247 kts 298°
2026-05-06 19:24 52.75437 4.28480 14133 ft 259 kts 299°
2026-05-06 19:24 52.76358 4.25838 14273 ft 271 kts 299°